Estación de Santa María

Ultimos registro cada 15 minutos 66
Estación Fecha / Hora Temperatura Humedad Lluvia Velocidad Dirección Radiación Presion
66 Santa María 31-08-2026 16:15 19,4 55,5 0 0 281 243,1 939,3
65 Santa María 31-08-2026 16:00 18,6 56,9 0 0 286 243,1 939,4
64 Santa María 31-08-2026 15:45 19,5 52,1 0 0 305 234,4 939,3
63 Santa María 31-08-2026 15:30 19,3 50 0 0 303 348,1 939,3
62 Santa María 31-08-2026 15:15 19,2 52,9 0 0,5 234 404,4 939,3
61 Santa María 31-08-2026 15:00 19,7 51,6 0 0,5 326 748,1 939,4
60 Santa María 31-08-2026 14:45 19,5 52,5 0 0,5 167 718,1 939,6
59 Santa María 31-08-2026 14:30 19,8 51,6 0 0 233 696,9 939,9
58 Santa María 31-08-2026 14:15 18,4 52,4 0 0 180 723,1 940
57 Santa María 31-08-2026 14:00 19,1 54,3 0 0 60 733,1 940,1
56 Santa María 31-08-2026 13:45 18,3 53,6 0 0 49 750,6 940,4
55 Santa María 31-08-2026 13:30 18,2 56,8 0 0 42 764,4 940,6
54 Santa María 31-08-2026 13:15 18,1 58,7 0 0 42 771,9 940,9
53 Santa María 31-08-2026 13:00 17,3 59,7 0 0 307 779,4 941,2
52 Santa María 31-08-2026 12:45 17 60,5 0 0 320 783,1 941,3
51 Santa María 31-08-2026 12:30 16,9 61,3 0 0 199 781,9 941,5
50 Santa María 31-08-2026 12:15 15,3 64,8 0 0 223 776,9 941,5
49 Santa María 31-08-2026 12:00 15,4 63,4 0 0 251 765,6 941,8
48 Santa María 31-08-2026 11:45 15,4 65,3 0 0 226 749,4 941,9
47 Santa María 31-08-2026 11:30 14,7 68,5 0 0 223 730,6 942
46 Santa María 31-08-2026 11:15 14,6 69,2 0 0 28 711,9 942,1
45 Santa María 31-08-2026 11:00 13,9 68,8 0 0 53 675,6 942,4
44 Santa María 31-08-2026 10:45 13,8 67,9 0 0 268 661,9 942,6
43 Santa María 31-08-2026 10:30 12,6 71,4 0 0 216 626,9 943
42 Santa María 31-08-2026 10:15 12,6 73,2 0 0 91 586,9 942,9
41 Santa María 31-08-2026 10:00 12 76,1 0 0 51 554,4 942,8
40 Santa María 31-08-2026 09:45 12 77,8 0 0 49 499,4 942,7
39 Santa María 31-08-2026 09:30 11 84 0 0 29 461,9 942,6
38 Santa María 31-08-2026 09:15 9,2 89,6 0 0 28 275,6 942,4
37 Santa María 31-08-2026 09:00 9,6 87,8 0 0 44 144,4 942,2
36 Santa María 31-08-2026 08:45 9,2 89,1 0 0 53 173,1 942
35 Santa María 31-08-2026 08:30 8,9 91,6 0 0 59 145,6 942
34 Santa María 31-08-2026 08:15 8,5 91,2 0 0 38 51,9 941,9
33 Santa María 31-08-2026 08:00 8,7 94,4 0 0 307 89,4 941,7
32 Santa María 31-08-2026 07:45 7,5 94,6 0 0 293 64,4 941,4
31 Santa María 31-08-2026 07:30 7,2 94,1 0 0 295 8,1 941,3
30 Santa María 31-08-2026 07:15 7,2 93,8 0 0 295 5,6 941,1
29 Santa María 31-08-2026 07:00 7,7 93,8 0 0 295 1,9 940,7
28 Santa María 31-08-2026 06:45 8,1 93,7 0 0 295 0,6 940,6
27 Santa María 31-08-2026 06:30 8,1 93,7 0 0 295 0,6 940,6
26 Santa María 31-08-2026 06:15 8,2 93,6 0 0 326 0,6 940,5
25 Santa María 31-08-2026 06:00 8,3 93,5 0 0 358 0,6 940,5
24 Santa María 31-08-2026 05:45 8,4 93,2 0 0 358 0,6 940,3
23 Santa María 31-08-2026 05:30 8,4 93,1 0 0 358 0,6 940,6
22 Santa María 31-08-2026 05:15 8,4 93 0,2 0 358 0,6 940,8
21 Santa María 31-08-2026 05:00 8,4 92,6 0,2 0 307 0,6 940,5
20 Santa María 31-08-2026 04:45 8,4 92,5 0 0 295 0,6 940,5
19 Santa María 31-08-2026 04:30 8,6 92,4 0 0 295 0,6 940,5
18 Santa María 31-08-2026 04:15 8,6 92,2 0,2 0 295 0,6 940,2
17 Santa María 31-08-2026 04:00 8,5 91,9 0 0 295 0,6 939,8
16 Santa María 31-08-2026 03:45 8,5 91,7 0 0 295 0,6 939,6
15 Santa María 31-08-2026 03:30 8,5 91,2 0 0 295 0,6 939,5
14 Santa María 31-08-2026 03:15 8,5 90,9 0 0 295 0,6 939,3
13 Santa María 31-08-2026 03:00 8,6 89,5 0,2 0 295 0,6 938,9
12 Santa María 31-08-2026 02:45 8,6 88,8 0 0 330 0,6 938,9
11 Santa María 31-08-2026 02:30 8,7 90,7 0,2 0 69 0,6 939
10 Santa María 31-08-2026 02:15 8,8 89,9 0 0 69 0,6 938,8
9 Santa María 31-08-2026 02:00 8,7 89,9 0,2 0 69 0,6 938,8
8 Santa María 31-08-2026 01:45 8,7 88,8 0,2 0 72 0,6 938,7
7 Santa María 31-08-2026 01:30 8,7 87,6 0,2 0 58 0,6 938,6
6 Santa María 31-08-2026 01:15 8,7 88,2 0 0 67 0,6 938,7
5 Santa María 31-08-2026 01:00 8,6 87,3 0 0 56 0,6 938,6
4 Santa María 31-08-2026 00:45 8,6 87,4 0,2 0 10 0,6 938,4
3 Santa María 31-08-2026 00:30 8,7 86,8 0,2 0,5 246 0,6 938,5
2 Santa María 31-08-2026 00:15 8,9 83,8 1 1,5 240 0,6 938,4
1 Santa María 31-08-2026 00:00 10 75 0,4 0 272 0,6 938,4